Погода в Бресте

Поиск расширенной информации на нашем сайте:

Полезная информация:

Новости сайта



02.01.2020
Опубликован Долгосрочный прогноз погоды по городам России и ближнего зарубежья на январь 2020 года.
Карты: Прогноз на январь и февраль 2020 года, Сравнение прогнозируемой аномалии приземной температуры воздуха на январь 2020 года по разным моделям.




Погода в Бресте - сегодня

Время (UTC), дата Ветер
(°,м/с) 
Видим.   Явления Облачность Т
(°С)
Тd
(°С)
f(%) Тe
(°С)
Pmin
(гПа)
dP
(гПа)
Po
(мм)
O2
(г/м3)
Тmin Tmax R s Состояние
почвы
12 19.10.20 280 (З) 3{10}  15000 м  слаб. крупа  8/8 1000 м 
[Sc]
+9.4 +4.2 70 +9  1021.4  0.2  753  293      0.0     
15 19.10.20 260 (З) 20000 м    3/3 2000 м 
[Sc]
+7.9 +4.1 77 +9  1021.5  753  294      0.0     
18 19.10.20 260 (З) 20000 м    ясно 
+5.1 +2.8 85 +6  1022.9  1.2  754  298    +10  0.0     
21 19.10.20 250 (З) 20000 м    ясно 
+3.9 +2.7 92 +5  1024  754  299           
00 20.10.20 250 (З) 15000 м    ясно 
+3.5 +2.8 95 +3  1024.6  0.6  755  300           
03 20.10.20 240 (ЮЗ) 10 км    ясно 
+2.6 +2.1 96 +2  1025.3  0.6  755  301           
06 20.10.20 250 (З) 4600 м  дымка  8/0 верхняя 
[Cs]
+2.6 +2.3 98 +2  1026.2  0.9  756  301  +2         
09 20.10.20 190 (Ю) 10 км    9/0 верхняя 
[Cs]
+6.6 +5.1 90 +8  1027.2  1.2  757  297           
12 20.10.20 240 (ЮЗ) 20000 м    9/3 2000 м верхняя 
[Sc|Cs]
+10.2 +4.8 69 +10  1026.2  -0.7  756  293           
15 20.10.20 160 (Ю) 30000 м    9/0 верхняя 
[Cs]
+9.8 +5.2 73 +11  1024.7  -1.5  755  293           
18 20.10.20 160 (Ю) 30000 м    4/0 верхняя 
[Cs]
+8.7 +4.3 74 +8  1023.4  -1.4  754  294    +10.8       
21 20.10.20 160 (Ю) 30000 м    8/0 средняя 
[Ac trans]
+7.5 +5 84 +7  1022  -1.4  753  295           
00 21.10.20 190 (Ю) 30000 м    9/0 средняя 
[Ac trans]
+7.9 +5.4 84 +8  1020.3  -1.7  752  294           
03 21.10.20 190 (Ю) 30000 м    9/0 средняя 
[Ac trans]
+7.7 +5 83 +8  1018.4  -1.8  750  293           
06 21.10.20 210 (ЮЗ) 30000 м    10/0 средняя, верхняя 
[Ac trans|Cs]
+7.8 +4.9 82 +7  1017.3  -1.1  750  293  +7.2         
09 21.10.20 220 (ЮЗ) 20000 м    10/3 1000 м верхняя 
[Sc|Cs]
+10.3 +5.5 72 +10  1017.3  0.2  750  290           
12 21.10.20 230 (ЮЗ) 30000 м    9/0 средняя 
[Ac trans]
+12 +6.3 68 +12  1016.9  -0.3  750  288           
15 21.10.20 190 (Ю) 30000 м    10/0 средняя, верхняя 
[Ac As|Cs]
+11.8 +7.3 74 +13  1016.4  -0.5  749  288           
18 21.10.20 180 (Ю) 15000 м  слаб. дождь  10/0 средняя 
[As op]
+10.6 +8 84 +12  1016.2  -0.3  749  289    +12.5  0.0     
21 21.10.20 180 (Ю) 15000 м  {дождь}  4/0 средняя 
[Ac trans]
+10.1 +7.3 83 +10  1015.6  -0.6  749  290      0.0     
00 22.10.20 220 (ЮЗ) 30000 м  {дождь}  ясно 
+9.6 +7.2 85 +10  1015.3  -0.4  748  290           
03 22.10.20 210 (ЮЗ) 30000 м    ясно 
+8.8 +6.9 88 +9  1014.6  -0.7  748  291      0.0     
06 22.10.20 230 (ЮЗ) 20000 м    3/0 верхняя 
[Ci fib]
+9.5 +7.3 86 +9  1014.6  0.1  748  290  +8.5    0.0     
09 22.10.20 230 (ЮЗ) 4{10}  20000 м    3/0 верхняя 
[Ci fib]
+15.2 +8.9 66 +15  1015.2  749  284           
12 22.10.20 240 (ЮЗ) 4{10}  20000 м    8/0 верхняя 
[Cs]
+17.7 +10.3 62 +20  1015.5  0.4  749  281           
Время (UTC), дата Ветер
(°,м/с) 
Видим.   Явления Облачность Т
(°С)
Тd
(°С)
f(%) Тe
(°С)
Pmin
(гПа)
dP
(гПа)
Po
(мм)
O2
(г/м3)
Тmin Tmax R s Состояние
почвы

Для получения пояснительной информации подведите курсор к названию столбца.

ПОГОДА в Бресте - архив

Всё, что Вы хотите узнать о погоде в Бресте - удобно и подробно!

Выберите нужную дату (начиная с 1 января 2019* года) и нажмите кнопку "Найти".
Будут отображены архивные сводки погоды по пункту Брест, начиная с указанной даты.


Отображать данные в формате CSV (для использования в таблицах Excel)


Внимание! Наш архив погоды предназначен исключительно для личного некоммерческого использования в познавательных целях. Если Вам необходимы официальные справки о состоянии погоды (для производственных, юридических, коммерческих и т.п. целей), обращайтесь в органы Росгидромета.

*Примечание: данная дата относится к архиву по метеостанциям СССР (Россия, СНГ, Балтия).
Архив по метеостанциям Зарубежной Европы и Азии (кроме Китая) хранится 10 дней, по другим регионам земного шара (Китай, Африка, Америка, Австралия, Океания) - 1 день.

Брест - район местоположения метеостанции


Название, широта, долгота, высота метеостанции:
Брест 52.1°ш. 23.7°д. 146 м над ур. моря [Беларусь]

Дополнительная информация

В oтличие oт бoльшинства пoгoдных сайтoв мы публикуем пoдрoбную метеoинфoрмацию в детальнoм прoфессиoнальнoм фoрмате.

Характеристики температуры и влажнoсти вoздуха измеряются на высoте 2 м в тени вдали oт зданий и деревьев.
Скoрoсть ветра измеряется на высoте 10 м (на урoвне рoста челoвека скoрoсть ветра ниже в 1.5-2 раза). Если метеoстанция нахoдится в гoрoде или в лесу, тo скoрoсть ветра занижена на 2-4 м/с пo сравнению с oткрытым местoм. Скoрoсть ветра над акватoриями крупных рек и oзёр, а также на вершинах хoлмoв на 2-5 м/с выше, чем в oбычных услoвиях.
Атмoсфернoе давление в разных тoчках местнoсти мoжет значительнo oтличаться oт давления на метеoстанции, в зависимoсти oт услoвий рельефа (при пoдъёме на 10 м давление пoнижается примернo на 1 мм рт.ст.).